Location: Mascot Post Office (historical)
(40.2645°N, 99.5462°W)
Time: 15:46:45
(UTC+00:00)

Cosmos 1300 Rocket - Pass Details

Date: 14 July 2020
Orbit: 601 x 627 km, 82.5° (Epoch: 05 August)

Event Time Altitude Azimuth Distance (km) Brightness Sun altitude
Rises 10:44:06 0° 187° (S) 2,888 6.6 -6.7°
Reaches altitude 10° 10:46:19 10° 188° (S) 1,983 5.8 -6.4°
Maximum altitude 10:50:43 85° 275° (W) 626 3.6 -5.7°
Drops below altitude 10° 10:55:07 10° 7° (N) 1,982 6.8 -5.0°
Sets 10:57:21 0° 8° (N) 2,887 7.7 -4.7°
